Weather History for K1A5 - January, 2013

Change the Weather History Date:

Thursday, January 31, 2013

  Actual Average (KTOC) Record (KTOC)
Temperature  
Mean Temperature 35 °F -  
Max Temperature 41 °F 55 °F 63 °F (2014)
Min Temperature 29 °F 32 °F 21 °F (2014)
Degree Days  
Heating Degree Days 30    
Moisture  
Dew Point 21 °F    
Average Humidity 59    
Maximum Humidity 84    
Minimum Humidity 34    
Precipitation  
Precipitation 0.01 in - - ()
Sea Level Pressure  
Sea Level Pressure 29.92 in    
Wind  
Wind Speed 7 mph (NW)    
Max Wind Speed 17 mph    
Max Gust Speed 31 mph    
Visibility 10 miles    
Events Rain , Snow    
Averages and records for this station are not official NWS values.
T = Trace of Precipitation, MM = Missing Value Source: NWS Daily Summary

Daily Weather History Graph

Daily Weather History Graph

Search for Another Location

Airport or City:

Trip Planner

Search our weather history database for the weather conditions in past years. The results will help you decide how hot, cold, wet, or windy it might be!

Date:

Astronomy

Jan. 31, 2013 Rise Set
Actual Time 7:33 AM EST 6:01 PM EST
Civil Twilight 7:06 AM EST 6:28 PM EST
Nautical Twilight 6:36 AM EST 6:58 PM EST
Astronomical Twilight 6:06 AM EST 7:28 PM EST
Moon 10:48 PM EST (1/31) 9:44 AM EST (1/31)
Length of Visible Light 11h 21m
Length of Day
10h 27m
Waning Gibbous, 80% of the Moon is Illuminated
Jan 31
Waning Gibbous
Feb 3
Last Quarter
Feb 10
New
Feb 17
First Quarter
Feb 25
Full

Hourly Weather History & Observations

Time (EST) Temp. Windchill Dew Point Humidity Pressure Visibility Wind Dir Wind Speed Gust Speed Precip Events Conditions
12:15 AM 40.8 °F 35.6 °F 32.5 °F 72% 29.66 in 10.0 mi WNW 8.1 mph 18.4 mph N/A   Overcast
12:35 AM 39.2 °F 30.2 °F 32.0 °F 75% 29.68 in 10.0 mi West 17.3 mph 27.6 mph N/A   Light Drizzle
12:55 AM 38.3 °F - 31.8 °F 77% 29.68 in 10.0 mi Calm Calm - N/A   Overcast
1:15 AM 38.3 °F 30.9 °F 30.4 °F 73% 29.69 in 10.0 mi West 11.5 mph 17.3 mph N/A Rain Light Rain
1:35 AM 37.0 °F 31.6 °F 30.0 °F 76% 29.70 in 7.0 mi WNW 6.9 mph - N/A Rain Rain
1:55 AM 34.5 °F 25.7 °F 30.2 °F 84% 29.73 in 2.5 mi NW 12.7 mph 20.7 mph 0.01 in Rain Light Rain
2:15 AM 34.3 °F 29.2 °F 29.5 °F 82% 29.75 in 5.0 mi West 5.8 mph - N/A Snow Light Snow
2:35 AM 33.8 °F 26.4 °F 28.0 °F 79% 29.76 in 2.5 mi NW 9.2 mph 17.3 mph N/A Snow Light Snow
2:55 AM 33.3 °F 28.9 °F 27.9 °F 81% 29.77 in 7.0 mi WNW 4.6 mph - N/A Snow Light Snow
3:15 AM 34.2 °F 25.2 °F 24.1 °F 67% 29.78 in 10.0 mi West 12.7 mph 23.0 mph N/A   Overcast
3:35 AM 33.8 °F 24.3 °F 25.0 °F 70% 29.78 in 10.0 mi West 13.8 mph 21.9 mph N/A   Overcast
3:55 AM 33.3 °F 26.4 °F 23.7 °F 68% 29.79 in 10.0 mi WNW 8.1 mph - N/A   Overcast
4:15 AM 33.3 °F 26.4 °F 21.7 °F 63% 29.80 in 10.0 mi WNW 8.1 mph 17.3 mph N/A   Overcast
4:35 AM 32.5 °F 23.2 °F 22.8 °F 67% 29.81 in 10.0 mi North 12.7 mph 18.4 mph N/A   Overcast
4:55 AM 31.5 °F 23.5 °F 23.0 °F 71% 29.82 in 10.0 mi North 9.2 mph 17.3 mph N/A   Overcast
5:15 AM 31.1 °F 24.5 °F 23.0 °F 72% 29.82 in 10.0 mi NW 6.9 mph - N/A   Overcast
5:35 AM 31.6 °F 23.7 °F 23.2 °F 71% 29.84 in 10.0 mi WNW 9.2 mph - N/A   Overcast
5:55 AM 31.8 °F 25.4 °F 21.4 °F 65% 29.85 in 10.0 mi NNW 6.9 mph - N/A   Overcast
6:15 AM 31.6 °F 26.0 °F 19.4 °F 61% 29.86 in 10.0 mi West 5.8 mph - N/A   Overcast
6:35 AM 31.5 °F 28.1 °F 19.4 °F 61% 29.87 in 10.0 mi WNW 3.5 mph - N/A   Overcast
7:15 AM 31.1 °F 26.4 °F 18.5 °F 60% 29.90 in 10.0 mi WNW 4.6 mph - N/A   Overcast
7:35 AM 31.1 °F 26.4 °F 18.0 °F 58% 29.91 in 10.0 mi NW 4.6 mph - N/A   Overcast
7:55 AM 31.1 °F - 18.3 °F 59% 29.91 in 10.0 mi Calm Calm - N/A   Overcast
8:15 AM 31.1 °F 26.4 °F 18.3 °F 59% 29.92 in 10.0 mi West 4.6 mph - N/A   Overcast
8:35 AM 32.0 °F 24.8 °F 18.7 °F 58% 29.93 in 10.0 mi West 8.1 mph - N/A   Scattered Clouds
8:55 AM 32.0 °F 25.6 °F 18.7 °F 58% 29.94 in 10.0 mi WNW 6.9 mph - N/A   Scattered Clouds
9:15 AM 32.9 °F 26.7 °F 19.6 °F 58% 29.95 in 10.0 mi WNW 6.9 mph - N/A   Scattered Clouds
9:35 AM 32.7 °F 27.3 °F 18.9 °F 57% 29.95 in 10.0 mi West 5.8 mph - N/A   Scattered Clouds
9:55 AM 34.0 °F 29.8 °F 19.8 °F 56% 29.96 in 10.0 mi NNW 4.6 mph - N/A   Scattered Clouds
10:15 AM 34.2 °F 28.2 °F 19.0 °F 54% 29.97 in 10.0 mi NW 6.9 mph - N/A   Clear
10:35 AM 34.9 °F 29.0 °F 19.8 °F 54% 29.96 in 10.0 mi NW 6.9 mph 19.6 mph N/A   Clear
10:55 AM 35.4 °F 30.5 °F 19.2 °F 52% 29.96 in 10.0 mi West 5.8 mph 17.3 mph N/A   Scattered Clouds
11:15 AM 36.3 °F 33.7 °F 20.1 °F 52% 29.95 in 10.0 mi WNW 3.5 mph - N/A   Mostly Cloudy
11:35 AM 36.1 °F 32.3 °F 18.7 °F 49% 29.96 in 10.0 mi NNE 4.6 mph - N/A   Mostly Cloudy
11:55 AM 38.1 °F 32.9 °F 19.2 °F 47% 29.96 in 10.0 mi NNW 6.9 mph - N/A   Mostly Cloudy
12:15 PM 37.6 °F 30.5 °F 19.9 °F 49% 29.96 in 10.0 mi NNW 10.4 mph 17.3 mph N/A   Mostly Cloudy
12:35 PM 37.6 °F 32.3 °F 15.8 °F 41% 29.97 in 10.0 mi WNW 6.9 mph 21.9 mph N/A   Mostly Cloudy
12:55 PM 37.6 °F 29.6 °F 15.4 °F 41% 29.97 in 10.0 mi WNW 12.7 mph 23.0 mph N/A   Scattered Clouds
1:15 PM 38.7 °F 29.5 °F 16.0 °F 40% 29.97 in 10.0 mi West 17.3 mph 26.5 mph N/A   Scattered Clouds
1:35 PM 40.6 °F 35.4 °F 16.3 °F 37% 29.96 in 10.0 mi North 8.1 mph 17.3 mph N/A   Scattered Clouds
1:55 PM 40.1 °F 31.6 °F 14.4 °F 35% 29.98 in 10.0 mi NW 16.1 mph 31.1 mph N/A   Mostly Cloudy
2:15 PM 39.6 °F 33.5 °F 15.4 °F 38% 29.99 in 10.0 mi NW 9.2 mph 16.1 mph N/A   Scattered Clouds
2:35 PM 40.8 °F 35.6 °F 17.2 °F 39% 29.99 in 10.0 mi NNW 8.1 mph 17.3 mph N/A   Scattered Clouds
2:55 PM 40.3 °F 36.3 °F 14.4 °F 35% 29.98 in 10.0 mi NW 5.8 mph 20.7 mph N/A   Scattered Clouds
3:15 PM 40.6 °F 35.4 °F 14.2 °F 34% 29.99 in 10.0 mi NW 8.1 mph 18.4 mph N/A   Scattered Clouds
3:35 PM 40.8 °F 35.0 °F 14.0 °F 34% 29.99 in 10.0 mi WNW 9.2 mph - N/A   Scattered Clouds
3:55 PM 41.0 °F 35.8 °F 14.7 °F 34% 30.00 in 10.0 mi WNW 8.1 mph 23.0 mph N/A   Clear
4:15 PM 40.1 °F 36.1 °F 13.8 °F 34% 30.00 in 10.0 mi NNW 5.8 mph 19.6 mph N/A   Clear
4:35 PM 40.1 °F 38.0 °F 14.0 °F 35% 30.00 in 10.0 mi NW 3.5 mph - N/A   Clear
4:55 PM 40.1 °F 36.9 °F 14.2 °F 35% 29.99 in 10.0 mi NNW 4.6 mph - N/A   Clear
5:15 PM 39.6 °F 37.4 °F 14.9 °F 37% 29.99 in 10.0 mi North 3.5 mph - N/A   Clear
5:35 PM 38.8 °F 35.4 °F 15.4 °F 39% 29.99 in 10.0 mi NNE 4.6 mph - N/A   Unknown
5:55 PM 37.8 °F - 15.4 °F 40% 30.00 in 10.0 mi Calm Calm - N/A   Clear
6:15 PM 35.6 °F - 19.9 °F 53% 30.00 in 10.0 mi Calm Calm - N/A   Clear
6:35 PM 32.4 °F - 22.6 °F 67% 30.01 in 10.0 mi Calm Calm - N/A   Clear
6:55 PM 31.6 °F - 22.6 °F 69% 30.01 in 10.0 mi Calm Calm - N/A   Clear
7:15 PM 30.9 °F - 22.3 °F 70% 30.01 in 10.0 mi Calm Calm - N/A   Clear
7:35 PM 31.1 °F - 22.3 °F 70% 30.02 in 10.0 mi Calm Calm - N/A   Clear
7:55 PM 31.1 °F - 21.9 °F 69% 30.02 in 10.0 mi Calm Calm - N/A   Clear
8:15 PM 30.0 °F - 22.1 °F 72% 30.03 in 10.0 mi Calm Calm - N/A   Clear
8:35 PM 30.2 °F - 23.0 °F 75% 30.03 in 10.0 mi Calm Calm - N/A   Clear
8:55 PM 30.9 °F - 22.6 °F 71% 30.04 in 10.0 mi Calm Calm - N/A   Clear
9:15 PM 30.2 °F - 23.0 °F 75% 30.04 in 10.0 mi Calm Calm - N/A   Clear
9:35 PM 29.7 °F - 23.0 °F 76% 30.04 in 10.0 mi Calm Calm - N/A   Clear
9:55 PM 29.7 °F 23.7 °F 23.0 °F 76% 30.03 in 10.0 mi NE 5.8 mph - N/A   Clear
10:15 PM 30.9 °F 26.2 °F 23.0 °F 72% 30.03 in 10.0 mi East 4.6 mph - N/A   Scattered Clouds
10:35 PM 30.0 °F 26.5 °F 23.0 °F 75% 30.02 in 10.0 mi ENE 3.5 mph - N/A   Clear
11:15 PM 30.7 °F 27.3 °F 22.5 °F 71% 30.04 in 10.0 mi NE 3.5 mph - N/A   Clear
11:35 PM 32.5 °F 27.1 °F 21.4 °F 64% 30.03 in 10.0 mi ENE 5.8 mph - N/A   Clear
11:55 PM 32.5 °F 27.1 °F 21.6 °F 64% 30.01 in 10.0 mi ENE 5.8 mph - N/A   Clear